TITAN 3C TRANSTAGE DEB *, 38697

Orbit data source: Space-Track

TITAN 3C TRANSTAGE DEB *, 38697 is space debris in GEO originally from a launch on Thu, 26 Sep 1968 UTC launched from the Air Force Eastern Test Range (AFETR). Debris objects in space refer to the collection of defunct objects orbiting the Earth. Examples of debris include non-operational satellites, rocket bodies, and fragments generated from explosions, collisions, or faulty payload assembly.

Not visible in the next 10 days
Identifier
38697, 1968-081X
Orbit
GEO
Country
Flag of USUS
Related business
Manufacturer
Unknown
Mission
Spacecraft
Bus & Motor
Unknown
Mass
Unknown
Launch date (UTC)
1968-09-26 (57 years ago)
Launch vehicle
Unknown
Launch site
Air Force Eastern Test Range (AFETR)
Object type
Payload
Rocket body
Debris
Shape & HBR
Unknown shape, 1.1 m
Radar Cross Section
Small (<0.1 m²)

Expand to show TLE details & history
Last TLE update: 12 hours ago

TLE from 12 hours ago
0 TITAN 3C TRANSTAGE DEB *
1 38697U 68081X   25291.76474619 -.00000405  00000-0  00000-0 0  9999
2 38697   4.9259  42.2127 0576262 118.8979 246.9948  1.01485387 72416
Epoch: 2025-10-18T18:21Z
TLE epoch observation values (Epoch: 2025-10-18T18:21:14.070Z)
Latitude
-0°
Longitude
99.39224°
Altitude
36,518.231 km
Speed
3.009 km/s
True Right ascension
02h 48m 46s
True Declination
0° 00' 00"
Sunlit
Object was in daylight at epoch
Visualization orbit readout
Latitude
Unknown
Longitude
Unknown
Altitude
Unknown
Speed
Unknown
Apparent Right ascension
Unknown
Apparent Declination
Unknown
Sunlit
N/A
Visualization observer readout
Local Sidereal Time
00:52:56
Azimuth
Unknown
Elevation
Unknown
Doppler factor
Unknown
Orbital elements
Apogee altitude
37,861.291 km
Perigee altitude
33,040.4 km
Semi-major axis
41,828.982 km
Eccentricity
0.05763
Inclination
4.9259°
RAAN
42.2127°
Arg. of periapsis
118.8979°
True anomaly
241.09352°
Mean anomaly
246.9948°
Eccentric anomaly
244.02655°
Mean motion
0.2537 °/min
Orbital period
1,418.98 mins
BSTAR
0
Loading maneuver chart data...
Computing Atmospheric mass density...

Documentation

Showing up to 5 results
|